Weather History for Shawano, WI

Change the Weather History Date:

Thursday, March 28, 2013

  Actual Average (KGRB) Record (KGRB)
Temperature  
Mean Temperature 35 °F 36 °F  
Max Temperature 46 °F 45 °F 74 °F (1946)
Min Temperature 24 °F 27 °F -2 °F (1923)
Degree Days  
Heating Degree Days 30 29  
Month to date heating degree days 975  
Since 1 July heating degree days 6815  
Cooling Degree Days 0 0  
Month to date cooling degree days 0  
Year to date cooling degree days 0  
Moisture  
Dew Point 18 °F    
Average Humidity 51    
Maximum Humidity 80    
Minimum Humidity 29    
Precipitation  
Precipitation 0.00 in 0.06 in 1.14 in (1931)
Month to date precipitation 1.64  
Year to date precipitation 3.88  
Snow  
Snow 0.00 in 0.20 in 11.50 in (1931)
Month to date snowfall 7.6  
Since 1 July snowfall 47.8  
Snow Depth -    
Sea Level Pressure  
Sea Level Pressure 30.28 in    
Wind  
Wind Speed 2 mph (West)    
Max Wind Speed 12 mph    
Max Gust Speed 9 mph    
Visibility 10 miles    
Events      
T = Trace of Precipitation, MM = Missing Value Source: NWS Daily Summary

Daily Weather History Graph

Daily Weather History Graph

Search for Another Location

Airport:

Trip Planner

Search our weather history database for the weather conditions in past years. The results will help you decide how hot, cold, wet, or windy it might be!

Date:

Astronomy

Mar. 28, 2013 Rise Set
Actual Time 6:41 AM CDT 7:17 PM CDT
Civil Twilight 6:12 AM CDT 7:46 PM CDT
Nautical Twilight 5:37 AM CDT 8:21 PM CDT
Astronomical Twilight 5:01 AM CDT 8:57 PM CDT
Moon 9:15 PM CDT (3/28) 7:05 AM CDT (3/28)
Length of Visible Light 13h 34m
Length of Day
12h 35m
Full, 98% of the Moon is Illuminated
Mar 28
Full
Apr 2
Last Quarter
Apr 10
New
Apr 18
First Quarter
Apr 25
Full

Hourly Weather History & Observations

Time (CDT) Temp. Windchill Dew Point Humidity Pressure Visibility Wind Dir Wind Speed Gust Speed Precip Events Conditions
12:15 AM 32.0 °F - 21.2 °F 64% 30.28 in 10.0 mi Calm Calm - N/A   Clear
12:35 AM 30.2 °F - 21.2 °F 69% 30.28 in 10.0 mi Calm Calm - N/A   Clear
12:55 AM 30.2 °F - 21.2 °F 69% 30.28 in 10.0 mi Calm Calm - N/A   Clear
1:15 AM 28.4 °F - 21.2 °F 74% 30.28 in 10.0 mi Calm Calm - N/A   Clear
1:35 AM 30.2 °F - 21.2 °F 69% 30.29 in 10.0 mi Calm Calm - N/A   Clear
1:55 AM 28.4 °F - 19.4 °F 69% 30.29 in 10.0 mi Calm Calm - N/A   Clear
2:15 AM 28.4 °F - 19.4 °F 69% 30.29 in 10.0 mi Calm Calm - N/A   Clear
2:35 AM 28.4 °F - 21.2 °F 74% 30.29 in 10.0 mi Calm Calm - N/A   Clear
2:55 AM 28.4 °F - 21.2 °F 74% 30.29 in 10.0 mi Calm Calm - N/A   Clear
3:15 AM 28.4 °F - 21.2 °F 74% 30.29 in 10.0 mi Calm Calm - N/A   Clear
3:35 AM 28.4 °F - 19.4 °F 69% 30.29 in 10.0 mi Calm Calm - N/A   Clear
3:55 AM 24.8 °F - 19.4 °F 80% 30.29 in 10.0 mi Calm Calm - N/A   Clear
4:15 AM 26.6 °F - 19.4 °F 74% 30.29 in 10.0 mi Calm Calm - N/A   Clear
4:35 AM 26.6 °F - 19.4 °F 74% 30.30 in 10.0 mi Calm Calm - N/A   Clear
4:55 AM 26.6 °F - 17.6 °F 69% 30.29 in 10.0 mi Calm Calm - N/A   Clear
5:15 AM 26.6 °F - 17.6 °F 69% 30.30 in 10.0 mi Calm Calm - N/A   Clear
5:35 AM 24.8 °F - 17.6 °F 74% 30.30 in 10.0 mi Calm Calm - N/A   Clear
5:55 AM 28.4 °F 23.3 °F 17.6 °F 64% 30.30 in 10.0 mi West 4.6 mph - N/A   Clear
6:15 AM 26.6 °F 21.2 °F 17.6 °F 69% 30.30 in 10.0 mi West 4.6 mph - N/A   Clear
6:35 AM 26.6 °F - 17.6 °F 69% 30.30 in 10.0 mi Calm Calm - N/A   Clear
6:55 AM 26.6 °F - 17.6 °F 69% 30.31 in 10.0 mi Calm Calm - N/A   Clear
7:15 AM 26.6 °F - 17.6 °F 69% 30.31 in 10.0 mi Calm Calm - N/A   Clear
7:35 AM 26.6 °F - 17.6 °F 69% 30.31 in 10.0 mi Calm Calm - N/A   Clear
7:55 AM 28.4 °F - 17.6 °F 64% 30.31 in 10.0 mi Calm Calm - N/A   Clear
8:15 AM 30.2 °F - 17.6 °F 60% 30.31 in 10.0 mi Calm Calm - N/A   Clear
8:35 AM 30.2 °F 26.7 °F 17.6 °F 60% 30.31 in 10.0 mi WNW 3.5 mph - N/A   Clear
9:15 AM 32.0 °F - 17.6 °F 55% 30.32 in 10.0 mi Calm Calm - N/A   Clear
9:35 AM 33.8 °F - 17.6 °F 52% 30.31 in 10.0 mi Calm Calm - N/A   Clear
9:55 AM 35.6 °F 32.8 °F 17.6 °F 48% 30.31 in 10.0 mi WNW 3.5 mph - N/A   Clear
10:15 AM 37.4 °F - 17.6 °F 45% 30.31 in 10.0 mi Calm Calm - N/A   Clear
10:35 AM 39.2 °F 35.9 °F 17.6 °F 42% 30.31 in 10.0 mi West 4.6 mph - N/A   Clear
10:55 AM 41.0 °F 38.0 °F 19.4 °F 42% 30.30 in 10.0 mi West 4.6 mph - N/A   Clear
11:15 AM 41.0 °F - 17.6 °F 39% 30.30 in 10.0 mi Calm Calm - N/A   Clear
11:35 AM 42.8 °F 40.1 °F 17.6 °F 36% 30.30 in 10.0 mi ENE 4.6 mph - N/A   Clear
11:55 AM 42.8 °F 39.3 °F 17.6 °F 36% 30.29 in 10.0 mi NNE 5.8 mph - N/A   Clear
12:15 PM 44.6 °F 42.2 °F 15.8 °F 31% 30.29 in 10.0 mi NNE 4.6 mph - N/A   Clear
12:35 PM 44.6 °F 41.4 °F 15.8 °F 31% 30.29 in 10.0 mi NW 5.8 mph 9.2 mph N/A   Clear
12:55 PM 44.6 °F 42.2 °F 15.8 °F 31% 30.29 in 10.0 mi North 4.6 mph - N/A   Clear
1:15 PM 44.6 °F 42.2 °F 15.8 °F 31% 30.29 in 10.0 mi WSW 4.6 mph - N/A   Clear
1:35 PM 44.6 °F 42.2 °F 15.8 °F 31% 30.28 in 10.0 mi West 4.6 mph - N/A   Clear
1:55 PM 44.6 °F 40.2 °F 17.6 °F 34% 30.28 in 10.0 mi WSW 8.1 mph - N/A   Clear
2:15 PM 44.6 °F 43.1 °F 17.6 °F 34% 30.27 in 10.0 mi West 3.5 mph - N/A   Clear
2:35 PM 44.6 °F 40.2 °F 17.6 °F 34% 30.27 in 10.0 mi WNW 8.1 mph - N/A   Clear
2:55 PM 46.4 °F 42.4 °F 17.6 °F 32% 30.26 in 10.0 mi West 8.1 mph - N/A   Clear
3:15 PM 46.4 °F 42.9 °F 17.6 °F 32% 30.26 in 10.0 mi WSW 6.9 mph - N/A   Clear
3:35 PM 46.4 °F 42.4 °F 17.6 °F 32% 30.25 in 10.0 mi West 8.1 mph - N/A   Clear
3:55 PM 46.4 °F 41.9 °F 15.8 °F 29% 30.25 in 10.0 mi West 9.2 mph - N/A   Clear
4:15 PM 46.4 °F 41.5 °F 17.6 °F 32% 30.25 in 10.0 mi WSW 10.4 mph - N/A   Clear
4:35 PM 46.4 °F 41.5 °F 17.6 °F 32% 30.24 in 10.0 mi WSW 10.4 mph - N/A   Clear
5:15 PM 46.4 °F 41.5 °F 17.6 °F 32% 30.24 in 10.0 mi WSW 10.4 mph - N/A   Clear
5:35 PM 46.4 °F 42.9 °F 17.6 °F 32% 30.24 in 10.0 mi WSW 6.9 mph - N/A   Clear
5:55 PM 44.6 °F 38.8 °F 17.6 °F 34% 30.24 in 10.0 mi WSW 11.5 mph - N/A   Clear
6:15 PM 44.6 °F 39.7 °F 17.6 °F 34% 30.24 in 10.0 mi WSW 9.2 mph - N/A   Clear
6:35 PM 44.6 °F 40.2 °F 17.6 °F 34% 30.24 in 10.0 mi WSW 8.1 mph - N/A   Clear
6:55 PM 44.6 °F 40.2 °F 17.6 °F 34% 30.24 in 10.0 mi WSW 8.1 mph - N/A   Clear
7:15 PM 42.8 °F 40.1 °F 17.6 °F 36% 30.24 in 10.0 mi WSW 4.6 mph - N/A   Clear
7:35 PM 42.8 °F 41.1 °F 17.6 °F 36% 30.25 in 10.0 mi WSW 3.5 mph - N/A   Clear
7:55 PM 41.0 °F 39.0 °F 17.6 °F 39% 30.25 in 10.0 mi WSW 3.5 mph - N/A   Clear
8:15 PM 41.0 °F - 19.4 °F 42% 30.25 in 10.0 mi Calm Calm - N/A   Clear
8:35 PM 39.2 °F - 19.4 °F 45% 30.26 in 10.0 mi Calm Calm - N/A   Clear
8:55 PM 37.4 °F 34.9 °F 17.6 °F 45% 30.26 in 10.0 mi SW 3.5 mph - N/A   Clear
9:15 PM 37.4 °F 34.9 °F 19.4 °F 48% 30.27 in 10.0 mi WSW 3.5 mph - N/A   Clear
9:35 PM 37.4 °F 33.8 °F 19.4 °F 48% 30.27 in 10.0 mi WSW 4.6 mph - N/A   Clear
9:55 PM 37.4 °F 34.9 °F 19.4 °F 48% 30.27 in 10.0 mi WSW 3.5 mph - N/A   Clear
10:15 PM 33.8 °F 30.8 °F 21.2 °F 60% 30.27 in 10.0 mi WSW 3.5 mph - N/A   Clear
10:35 PM 35.6 °F 32.8 °F 21.2 °F 56% 30.27 in 10.0 mi WSW 3.5 mph - N/A   Clear
10:55 PM 35.6 °F 31.7 °F 19.4 °F 52% 30.27 in 10.0 mi WSW 4.6 mph - N/A   Clear
11:15 PM 35.6 °F 32.8 °F 19.4 °F 52% 30.27 in 10.0 mi WSW 3.5 mph - N/A   Clear
11:35 PM 33.8 °F - 21.2 °F 60% 30.27 in 10.0 mi Calm Calm - N/A   Clear
11:55 PM 32.0 °F 28.7 °F 21.2 °F 64% 30.27 in 10.0 mi West 3.5 mph - N/A   Clear